TimeCDT,TemperatureF,Dew PointF,Humidity,Sea Level PressureIn,VisibilityMPH,Wind Direction,Wind SpeedMPH,Gust SpeedMPH,PrecipitationIn,Events,Conditions,WindDirDegrees,DateUTC
12:19 AM,39.2,37.4,93,30.15,10.0,Variable,3.5,-,N/A,,Mostly Cloudy,0,2013-10-19 05:19:00
12:52 AM,37.9,36.0,93,30.17,10.0,NW,6.9,-,N/A,,Mostly Cloudy,310,2013-10-19 05:52:00
1:39 AM,37.4,35.6,93,30.15,10.0,WNW,4.6,-,N/A,,Scattered Clouds,290,2013-10-19 06:39:00
1:52 AM,37.0,35.1,93,30.15,10.0,Calm,Calm,-,N/A,,Clear,0,2013-10-19 06:52:00
2:22 AM,35.6,33.8,93,30.14,10.0,West,3.5,-,N/A,,Scattered Clouds,280,2013-10-19 07:22:00
2:32 AM,35.6,33.8,93,30.13,10.0,Calm,Calm,-,N/A,,Mostly Cloudy,0,2013-10-19 07:32:00
2:52 AM,37.0,35.1,93,30.15,10.0,WNW,4.6,-,N/A,,Overcast,290,2013-10-19 07:52:00
3:52 AM,35.1,33.1,92,30.14,10.0,Calm,Calm,-,N/A,,Scattered Clouds,0,2013-10-19 08:52:00
4:22 AM,33.8,32.0,93,30.12,10.0,Calm,Calm,-,N/A,,Mostly Cloudy,0,2013-10-19 09:22:00
4:34 AM,33.8,32.0,93,30.12,2.0,Calm,Calm,-,N/A,,Overcast,0,2013-10-19 09:34:00
4:37 AM,33.8,32.0,93,30.12,0.8,Calm,Calm,-,N/A,,Overcast,0,2013-10-19 09:37:00
4:52 AM,33.1,33.1,100,30.13,0.2,Calm,Calm,-,N/A,Fog,Fog,0,2013-10-19 09:52:00
5:52 AM,34.0,33.1,96,30.13,0.2,South,3.5,-,N/A,Fog,Fog,180,2013-10-19 10:52:00
6:52 AM,33.1,33.1,100,30.14,0.2,South,6.9,-,N/A,Fog-Snow,Light Snow,170,2013-10-19 11:52:00
7:52 AM,34.0,33.1,96,30.14,0.2,South,4.6,-,N/A,Fog,Fog,170,2013-10-19 12:52:00
8:52 AM,35.1,34.0,96,30.15,0.2,South,4.6,-,N/A,Fog,Fog,180,2013-10-19 13:52:00
9:41 AM,37.4,37.4,100,30.14,1.5,South,3.5,-,N/A,,Mostly Cloudy,190,2013-10-19 14:41:00
9:45 AM,37.4,37.4,100,30.14,3.0,Calm,Calm,-,N/A,,Mostly Cloudy,0,2013-10-19 14:45:00
9:52 AM,39.0,37.0,93,30.16,6.0,SW,4.6,-,N/A,,Mostly Cloudy,220,2013-10-19 14:52:00
10:02 AM,39.2,37.4,93,30.14,10.0,SSW,4.6,-,N/A,,Scattered Clouds,200,2013-10-19 15:02:00
10:52 AM,44.1,39.9,85,30.15,10.0,Variable,4.6,-,N/A,,Partly Cloudy,0,2013-10-19 15:52:00
11:52 AM,48.9,42.1,77,30.12,10.0,South,6.9,-,N/A,,Clear,170,2013-10-19 16:52:00
12:52 PM,55.0,43.0,64,30.10,10.0,South,9.2,-,N/A,,Clear,180,2013-10-19 17:52:00
2:52 PM,61.0,41.0,48,30.04,10.0,SW,12.7,17.3,N/A,,Clear,220,2013-10-19 19:52:00
3:52 PM,64.0,34.0,33,30.02,10.0,WSW,10.4,-,N/A,,Clear,250,2013-10-19 20:52:00
4:52 PM,64.0,34.0,33,30.00,10.0,SW,13.8,-,N/A,,Clear,220,2013-10-19 21:52:00
6:52 PM,57.0,37.9,49,29.99,10.0,South,6.9,-,N/A,,Clear,190,2013-10-19 23:52:00
7:52 PM,52.0,39.0,61,30.00,10.0,South,8.1,-,N/A,,Clear,180,2013-10-20 00:52:00
8:52 PM,50.0,39.9,68,30.00,10.0,South,6.9,-,N/A,,Clear,190,2013-10-20 01:52:00
9:52 PM,48.0,39.0,71,30.00,10.0,South,6.9,-,N/A,,Clear,180,2013-10-20 02:52:00
10:52 PM,46.9,39.0,74,30.00,10.0,South,6.9,-,N/A,,Clear,190,2013-10-20 03:52:00
11:52 PM,46.0,39.0,76,29.99,10.0,South,5.8,-,N/A,,Clear,170,2013-10-20 04:52:00